Location: Ajisawe
(8.4333°N, 4.3833°E)
Time: 22:38:49
(UTC+00:00)

Vanguard 2 Rocket - Pass Details

Date: 20 April 2021
Orbit: 554 x 3326 km, 32.9° (Epoch: 16 May)

Event Time Altitude Azimuth Distance (km) Brightness Sun altitude
Rises 16:55:04 0° 303° (WNW) 7,306 12.9 12.9°
Reaches altitude 10° 17:01:08 10° 312° (NW) 6,248 12.3 11.5°
Maximum altitude 17:17:48 34° 11° (N) 3,922 10.2 7.4°
Drops below altitude 10° 17:29:42 10° 71° (ENE) 4,518 9.9 4.5°
Sets 17:33:10 0° 81° (E) 5,146 10.1 3.7°
